Location: Paris
(48.6709°N, 2.3750°E)
Time: 17:41:49
(UTC+02:00)

STARS - Pass Details

Date: 04 July 2022
Orbit: 620 x 637 km, 98.2° (Epoch: 06 August)

Event Time Altitude Azimuth Distance (km) Brightness Sun altitude
Rises 01:15:51 0° 8° (N) 2,934 ? -17.9°
Reaches altitude 10° 01:18:08 10° 2° (N) 2,018 ? -18.0°
Maximum altitude 01:22:17 43° 291° (WNW) 885 ? -18.1°
Enters shadow 01:24:58 20° 229° (SW) 1,468 ? -18.1°
